This is the latest recevied weather packets stored in our database for station/object AI5BL. If no packets are shown the sender has not sent any weather packets the latest 10 day(s).
| Time | Temp. | Humidity | Pressure | Rain* | Wind** | Luminosity | Snow |
|---|---|---|---|---|---|---|---|
| 1778096106 | 25.56° C | 95% | 1014.9 hPa | 1.27 mm | - | 388 W/m² | - |
| 1778095802 | 25.56° C | 93% | 1014.9 hPa | 0 mm | - | 299 W/m² | - |
| 1778095500 | 25.56° C | 92% | 1015.1 hPa | 0 mm | - | 59 W/m² | - |
| 1778095195 | 26.11° C | 92% | 1015.3 hPa | 0 mm | - | 94 W/m² | - |
| 1778094892 | 26.11° C | 91% | 1015.4 hPa | 0 mm | - | 105 W/m² | - |
| 1778094588 | 26.11° C | 91% | 1015.3 hPa | 0 mm | - | 206 W/m² | - |
| 1778094286 | 25.56° C | 92% | 1015.5 hPa | 0 mm | - | 197 W/m² | - |
| 1778093982 | 26.11° C | 92% | 1015.5 hPa | 0 mm | - | 79 W/m² | - |
| 1778093680 | 26.11° C | 91% | 1015.6 hPa | 0 mm | - | 138 W/m² | - |
| 1778093376 | 26.67° C | 91% | 1015.6 hPa | 0 mm | - | 172 W/m² | - |
| 1778093073 | 26.11° C | 88% | 1015.8 hPa | 0 mm | - | 389 W/m² | - |
| 1778092771 | 26.11° C | 89% | 1015.7 hPa | 0 mm | - | 228 W/m² | - |
| 1778092466 | 25.56° C | 90% | 1015.9 hPa | 0 mm | - | 277 W/m² | - |
| 1778092163 | 25.56° C | 91% | 1015.9 hPa | 0 mm | - | 247 W/m² | - |
| 1778091861 | 25° C | 93% | 1015.8 hPa | 0 mm | - | 159 W/m² | - |
| 1778091558 | 25° C | 94% | 1015.8 hPa | 0 mm | - | 162 W/m² | - |
| 1778091256 | 25° C | 94% | 1015.8 hPa | 0 mm | - | 153 W/m² | - |
| 1778090952 | 25° C | 94% | 1015.9 hPa | 0 mm | - | 125 W/m² | - |
| 1778090648 | 25° C | 94% | 1016.1 hPa | 0 mm | - | 101 W/m² | - |
| 1778090345 | 25° C | 93% | 1016 hPa | 0 mm | - | 118 W/m² | - |
| 1778090041 | 25° C | 94% | 1016.1 hPa | 0 mm | - | 276 W/m² | - |
| 1778089739 | 24.44° C | 95% | 1016 hPa | 0 mm | - | 109 W/m² | - |
| 1778089436 | 24.44° C | 94% | 1016.2 hPa | 0 mm | - | 127 W/m² | - |
| 1778089133 | 24.44° C | 94% | 1016.1 hPa | 0 mm | - | 226 W/m² | - |
| 1778088830 | 24.44° C | 95% | 1016.4 hPa | 0 mm | - | 59 W/m² | - |
* Rain latest hour (hover to see other rain measurements)
** Current wind speed in m/s (hover to see current wind gust speed)